[Date Prev][Date Next][Thread Prev][Thread Next] - [Date Index][Thread Index][Author Index]

2 Line ISS Keps 3-8



ISS
1 25544U 98067A   06067.01070602  .00012533  00000-0  89768-4 0  4851
2 25544 051.6445 347.9833 0008421 339.2796 202.1568 15.74118708417219
----
Via the sarex mailing list at AMSAT.ORG courtesy of AMSAT-NA.
To unsubscribe, send "unsubscribe sarex" to Majordomo@amsat.org



AMSAT Top AMSAT Home